Weather History for Albion, NE

Change the Weather History Date:

Tuesday, November 15, 2011

  Actual Average (KOFK) Record (KOFK)
Temperature  
Mean Temperature 38 °F 37 °F  
Max Temperature 50 °F 47 °F 78 °F (2001)
Min Temperature 25 °F 26 °F -3 °F (1916)
Degree Days  
Heating Degree Days 26 28  
Month to date heating degree days 367  
Since 1 July heating degree days 952  
Cooling Degree Days 0 0  
Month to date cooling degree days 0  
Year to date cooling degree days 915  
Moisture  
Dew Point 20 °F    
Average Humidity 45    
Maximum Humidity 73    
Minimum Humidity 24    
Precipitation  
Precipitation 0.00 in 0.04 in 1.62 in (1996)
Month to date precipitation 0.72  
Year to date precipitation 26.01  
Snow  
Snow 0.00 in 0.20 in - ()
Month to date snowfall 1.5  
Since 1 July snowfall 2.3  
Snow Depth -    
Sea Level Pressure  
Sea Level Pressure 29.80 in    
Wind  
Wind Speed 11 mph (NW)    
Max Wind Speed 22 mph    
Max Gust Speed 30 mph    
Visibility 10 miles    
Events      
T = Trace of Precipitation, MM = Missing Value Source: NWS Daily Summary

Daily Weather History Graph

Daily Weather History Graph

Search for Another Location

Airport:

Trip Planner

Search our weather history database for the weather conditions in past years. The results will help you decide how hot, cold, wet, or windy it might be!

Date:

Astronomy

Nov. 15, 2011 Rise Set
Actual Time 7:21 AM CST 5:11 PM CST
Civil Twilight 6:51 AM CST 5:41 PM CST
Nautical Twilight 6:17 AM CST 6:15 PM CST
Astronomical Twilight 5:44 AM CST 6:48 PM CST
Moon 9:22 PM CST (11/15) 11:22 AM CST (11/15)
Length of Visible Light 10h 50m
Length of Day
9h 50m
Waning Gibbous, 79% of the Moon is Illuminated
Nov 15
Waning Gibbous
Nov 18
Last Quarter
Nov 25
New
Dec 2
First Quarter
Dec 10
Full

Hourly Weather History & Observations

Time (CST) Temp. Windchill Dew Point Humidity Pressure Visibility Wind Dir Wind Speed Gust Speed Precip Events Conditions
12:15 AM 45.7 °F 40.6 °F 27.1 °F 48% 29.55 in 10.0 mi SW 10.4 mph - N/A   Scattered Clouds
12:35 AM 47.7 °F - 28.4 °F 47% 29.55 in 10.0 mi SW 12.7 mph - N/A   Scattered Clouds
12:55 AM 47.7 °F - 28.0 °F 47% 29.55 in 10.0 mi SW 12.7 mph - N/A   Scattered Clouds
1:15 AM 46.8 °F - 28.0 °F 48% 29.55 in 10.0 mi WSW 11.5 mph 18.4 mph N/A   Clear
1:35 AM 44.8 °F 39.4 °F 27.9 °F 52% 29.56 in 10.0 mi WSW 10.4 mph - N/A   Clear
2:35 AM 42.8 °F 40.1 °F 24.4 °F 48% 29.57 in 10.0 mi West 4.6 mph - N/A   Clear
2:55 AM 40.5 °F 38.4 °F 23.7 °F 51% 29.59 in 10.0 mi WNW 3.5 mph - N/A   Clear
3:15 AM 39.7 °F 37.6 °F 22.5 °F 50% 29.60 in 10.0 mi North 3.5 mph - N/A   Clear
3:35 AM 37.9 °F 33.5 °F 21.2 °F 51% 29.60 in 10.0 mi NW 5.8 mph - N/A   Clear
3:55 AM 35.1 °F 30.1 °F 21.0 °F 57% 29.61 in 10.0 mi NW 5.8 mph - N/A   Clear
4:35 AM 33.8 °F 27.0 °F 19.9 °F 57% 29.63 in 10.0 mi NNW 8.1 mph - N/A   Clear
4:55 AM 34.3 °F 28.4 °F 19.6 °F 55% 29.65 in 10.0 mi NNW 6.9 mph - N/A   Clear
5:15 AM 33.1 °F 26.1 °F 19.9 °F 59% 29.67 in 10.0 mi NNW 8.1 mph - N/A   Clear
5:35 AM 31.1 °F 23.7 °F 20.3 °F 64% 29.67 in 10.0 mi NNW 8.1 mph - N/A   Clear
5:55 AM 30.9 °F 22.8 °F 20.3 °F 65% 29.67 in 10.0 mi NW 9.2 mph - N/A   Clear
7:15 AM 28.4 °F 20.4 °F 20.8 °F 73% 29.70 in 10.0 mi NW 8.1 mph - N/A   Clear
7:35 AM 28.9 °F 21.1 °F 20.3 °F 70% 29.71 in 10.0 mi NW 8.1 mph - N/A   Clear
7:55 AM 29.8 °F 20.3 °F 21.2 °F 70% 29.72 in 10.0 mi NNW 11.5 mph - N/A   Clear
8:15 AM 32.0 °F 23.6 °F 21.2 °F 64% 29.73 in 10.0 mi NW 10.4 mph - N/A   Clear
8:55 AM 35.8 °F 27.3 °F 23.0 °F 60% 29.75 in 10.0 mi NNW 12.7 mph - N/A   Clear
9:15 AM 39.2 °F 31.6 °F 24.3 °F 55% 29.76 in 10.0 mi NNW 12.7 mph - N/A   Clear
9:35 AM 42.4 °F 34.7 °F 25.7 °F 52% 29.77 in 10.0 mi NNW 16.1 mph 20.7 mph N/A   Clear
9:55 AM 44.6 °F 36.1 °F 25.9 °F 48% 29.78 in 10.0 mi NNW 21.9 mph 28.8 mph N/A   Clear
10:15 AM 45.1 °F 37.6 °F 25.5 °F 46% 29.79 in 10.0 mi North 18.4 mph 28.8 mph N/A   Clear
10:35 AM 45.9 °F 37.8 °F 25.3 °F 45% 29.80 in 10.0 mi NNW 21.9 mph 29.9 mph N/A   Clear
10:55 AM 47.1 °F - 25.5 °F 43% 29.81 in 10.0 mi NNW 20.7 mph 26.5 mph N/A   Clear
11:15 AM 47.7 °F - 23.9 °F 39% 29.82 in 10.0 mi NNW 21.9 mph 28.8 mph N/A   Clear
11:35 AM 48.2 °F - 24.1 °F 39% 29.82 in 10.0 mi NNW 18.4 mph 27.6 mph N/A   Clear
11:55 AM 48.6 °F - 24.6 °F 39% 29.83 in 10.0 mi NNW 19.6 mph 26.5 mph N/A   Clear
12:15 PM 48.6 °F - 24.8 °F 39% 29.83 in 10.0 mi North 17.3 mph 25.3 mph N/A   Clear
12:35 PM 49.1 °F - 25.9 °F 40% 29.84 in 10.0 mi NNW 17.3 mph 23.0 mph N/A   Clear
12:55 PM 49.3 °F - 25.2 °F 39% 29.85 in 10.0 mi NNW 16.1 mph 24.2 mph N/A   Clear
1:15 PM 49.6 °F - 23.4 °F 36% 29.86 in 10.0 mi NNW 16.1 mph 25.3 mph N/A   Clear
1:35 PM 49.8 °F - 21.7 °F 33% 29.86 in 10.0 mi NNW 17.3 mph 25.3 mph N/A   Clear
1:55 PM 50.0 °F - 21.6 °F 33% 29.86 in 10.0 mi NW 19.6 mph 26.5 mph N/A   Clear
2:15 PM 49.8 °F - 18.1 °F 29% 29.87 in 10.0 mi NNW 18.4 mph 27.6 mph N/A   Clear
2:35 PM 49.5 °F - 17.8 °F 29% 29.88 in 10.0 mi NW 17.3 mph 25.3 mph N/A   Clear
2:55 PM 49.3 °F - 17.4 °F 28% 29.89 in 10.0 mi NNW 19.6 mph 26.5 mph N/A   Clear
3:15 PM 48.4 °F - 16.7 °F 28% 29.89 in 10.0 mi NNW 18.4 mph 24.2 mph N/A   Clear
3:35 PM 48.2 °F - 17.4 °F 29% 29.90 in 10.0 mi NNW 15.0 mph 24.2 mph N/A   Clear
3:55 PM 47.3 °F - 14.5 °F 27% 29.91 in 10.0 mi NNW 12.7 mph 17.3 mph N/A   Clear
4:15 PM 45.9 °F 38.8 °F 11.3 °F 25% 29.92 in 10.0 mi NW 17.3 mph 25.3 mph N/A   Clear
4:35 PM 44.8 °F 38.0 °F 9.3 °F 24% 29.94 in 10.0 mi NNW 15.0 mph 21.9 mph N/A   Clear
4:55 PM 43.3 °F 37.7 °F 12.0 °F 28% 29.95 in 10.0 mi NNW 10.4 mph - N/A   Clear
5:15 PM 41.2 °F 36.0 °F 9.7 °F 28% 29.96 in 10.0 mi NNW 8.1 mph - N/A   Clear
5:35 PM 40.5 °F 35.1 °F 10.6 °F 29% 29.97 in 10.0 mi NNW 8.1 mph - N/A   Clear
5:55 PM 38.5 °F 34.1 °F 12.2 °F 34% 29.98 in 10.0 mi NNW 5.8 mph - N/A   Clear
6:15 PM 35.6 °F 31.7 °F 12.9 °F 39% 29.99 in 10.0 mi NNW 4.6 mph - N/A   Clear
6:35 PM 34.0 °F 29.8 °F 13.6 °F 43% 29.99 in 10.0 mi NNW 4.6 mph - N/A   Clear
6:55 PM 33.4 °F 30.4 °F 14.0 °F 45% 30.00 in 10.0 mi NNW 3.5 mph - N/A   Clear
7:15 PM 29.7 °F - 14.5 °F 53% 30.00 in 7.0 mi Calm Calm - N/A   Clear
7:35 PM 30.7 °F - 13.1 °F 48% 30.01 in 10.0 mi Calm Calm - N/A   Clear
7:55 PM 28.0 °F - 12.9 °F 53% 30.01 in 10.0 mi Calm Calm - N/A   Clear
8:15 PM 27.0 °F - 13.1 °F 56% 30.02 in 10.0 mi Calm Calm - N/A   Clear
8:35 PM 27.7 °F - 11.8 °F 51% 30.02 in 10.0 mi Calm Calm - N/A   Clear
8:55 PM 25.3 °F 21.1 °F 11.1 °F 55% 30.02 in 10.0 mi NW 3.5 mph - N/A   Clear
9:15 PM 21.6 °F - 12.7 °F 69% 30.03 in 10.0 mi Calm Calm - N/A   Clear
9:35 PM 23.4 °F - 11.7 °F 61% 30.04 in 10.0 mi Calm Calm - N/A   Clear
9:55 PM 23.9 °F - 11.1 °F 58% 30.06 in 10.0 mi Calm Calm - N/A   Clear
10:15 PM 21.0 °F - 9.5 °F 61% 30.07 in 10.0 mi Calm Calm - N/A   Clear
10:35 PM 20.5 °F - 12.4 °F 71% 30.08 in 10.0 mi Calm Calm - N/A   Clear
10:55 PM 20.7 °F - 10.9 °F 66% 30.08 in 10.0 mi Calm Calm - N/A   Clear
11:15 PM 20.3 °F - 11.1 °F 68% 30.09 in 10.0 mi Calm Calm - N/A   Clear
11:35 PM 19.8 °F 13.2 °F 10.9 °F 69% 30.09 in 10.0 mi NNW 4.6 mph - N/A   Clear
11:55 PM 22.5 °F 16.3 °F 10.4 °F 60% 30.11 in 10.0 mi NW 4.6 mph - N/A   Clear